SCP
0 0 0 0 0 0 0 0 0 0 0 0 0 0 0 0 0 0 0 0 0 0 0 0 0 0 0 0 0 0 0 0 0 0 0 0 0 0 0 0 0 0 0 0
0 0 0 0 0 0 0 0 0 0 0 0 0 0 0 0 0 0 0 0 0 0 0 0 0 0 0 0 0 0 0 0 0 0 0 0 0 0 0 0 0 0 0 0
0 0 0 0 0 0 0 0 0 0 0 0 0 0 0 0 0 0 0 0 0 0 0 0 0 0 0 0 0 0 0 0 0 0 0 0 0 0 0 0 0 0 0 0
0 0 0 0 0 0 0 0 0 0 0 0 0 0 0 0 0 0 0 0 0 0 0 0 0 0 0 0 0 0 0 0 0 0 0 0 0 0 0 0 0 0 0 0
0 0 0 0 0 0 0 0 0 0 0 0 0 0 0 0 0 0 0 0 0 0 0 0 0 0 0 0 0 0 0 0 0 0 0 0 0 0 0 0 0 0 0 0
0 0 0 0 0 0 0 0 0 0 0 0 0 0 0 0 0 0 0 0 0 0 0 0 0 0 0 0 0 0 0 0 0 0 0 0 0 0 0 0 0 0 0 0
0 0 0 0 0 0 0 0 0 0 0 0 0 0 0 0 0 0 0 0 0 0 0 0 0 0 0 0 0 0 0 0 0 0 0 0 0 0 0 0 0 0 0 0
0 0 0 0 0 0 0 0 0 0 0 0 0 0 0 0 0 0 0 0 0 0 0 0 0 0 0 0 0 0 0 0 0 0 0 0 0 0 0 0 0 0 0 0
0 0 0 0 0 0 0 0 0 0 0 0 0 0 0 0 0 0 0 0 0 0 0 0 0 0 0 0 0 0 0 0 0 0 0 0 0 0 0 0 0 0 0 0
0 0 0 0 0 0 0 0 0 0 0 0 0 0 0 0 0 0 0 0 0 0 0 0 0 0 0 0 0 0 0 0 0 0 0 0 0 0 0 0 0 0 0 0
0 0 0 0 0 0 0 0 0 0 0 0 0 0 0 0 0 0 0 0 0 0 0 0 0 0 0 0 0 0 0 0 0 0 0 0 0 0 0 0 0 0 0 0
0 0 0 0 0 0 0 0 0 0 0 0 0 0 0 0 0 0 0 0 0 0 0 0 0 0 0 0 0 0 0 0 0 0 0 0 0 0 0 0 0 0 0 0
0 0 0 0 0 0 0 0 0 0 0 0 0 0 0 0 0 0 0 0 0 0 0 0 0 0 0 0 0 0 0 0 0 0 0 0 0 0 0 0 0 0 0 0
0 0 0 0 0 0 0 0 0 0 0 0 0 0 0 0 0 0 0 0 0 0 0 0 0 0 0 0 0 0 0 0 0 0 0 0 0 0 0 0 0 0 0 0
0 0 0 0 0 0 0 0 0 0 0 0 0 0 0 0 0 0 0 0 0 0 0 0 0 0 0 0 0 0 0 0 0 0 0 0 0 0 0 0 0 0 0 0
0 0 0 0 0 0 0 0 0 0 0 0 0 0 0 0 0 0 0 0 0 0 0 0 0 0 0 0 0 0 0 0 0 0 0 0 0 0 0 0 0 0 0 0
0 0 0 0 0 0 0 0 0 0 0 0 0 0 0 0 0 0 0 0 0 0 0 0 0 0 0 0 0 0 0 0 0 0 0 0 0 0 0 0 0 0 0 0
0 0 0 0 0 0 0 0 0 0 0 0 0 0 0 0 0 0 0 0 0 0 0 0 0 0 0 0 0 0 0 0 0 0 0 0 0 0 0 0 0 0 0 0
0 0 0 0 0 0 0 0 0 0 0 0 0 0 0 0 0 0 0 0 0 0 0 0 0 0 0 0 0 0 0 0 0 0 0 0 0 0 0 0 0 0 0 0
0 0 0 0 0 0 0 0 0 0 0 0 0 0 0 0 0 -0 -0 0 0 0 0 0 0 0 0 0 0 0 0 0 0 0 0 0 0 0 0 0 0 0 0 0
0 0 0 0 0 0 0 0 0 0 0 0 0 0 0 0 0 -0 -0 0 0 0 0 0 0 0 0 0 0 0 0 0 0 0 0 0 0 0 0 0 0 0 0 0
0 0 0 0 0 0 0 0 0 0 0 0 0 0 0 0 0 0 0 0 0 0 0 0 0 0 0 0 0 0 0 0 0 0 0 0 0 0 0 0 0 0 0 0
0 0 0 0 0 0 0 0 0 0 0 0 0 0 0 0 0 0 0 0 0 0 0 0 0 0 0 0 0 0 0 0 0 0 0 0 0 0 0 0 0 0 0 0
0 0 0 0 0 0 0 0 0 0 0 0 0 0 0 0 0 0 0 0 0 0 0 0 0 0 0 0 0 0 0 0 0 0 0 0 0 0 0 0 0 0 0 0
0 0 0 0 0 0 0 0 0 0 0 0 0 0 0 0 0 0 0 0 0 0 0 0 0 0 0 0 0 0 0 0 0 0 0 0 0 0 0 0 0 0 0 0
0 0 0 0 0 0 0 0 0 0 0 0 0 0 0 0 0 0 0 0 0 0 0 0 0 0 0 0 0 0 0 0 0 0 0 0 0 0 0 0 0 0 0 0
0 0 0 0 0 0 0 0 0 0 0 0 0 0 0 0 0 0 0 0 0 0 0 0 0 0 0 0 0 0 0 0 0 0 0 0 0 0 0 0 0 0 0 0
Wind_Speed
5 4 4 6 8 7 9 9 9 10 11 12 7 6 5 4 5 5 5 4 4 3 3 3 2 2 2 1 2 2 2 2 2 2 3 3 3 3 3 3 3 2 3 3
5 4 4 8 10 10 11 10 10 11 14 9 6 5 5 5 5 5 6 5 5 4 3 3 2 2 1 1 1 2 2 2 2 3 3 3 3 3 3 3 3 3 3 3
5 5 3 8 9 9 7 7 8 12 12 5 5 6 6 6 5 6 6 6 6 5 4 3 2 1 1 0 1 2 2 2 2 3 3 2 3 3 3 3 4 4 3 3
2 1 8 9 3 7 9 10 10 10 9 7 8 7 6 5 6 7 6 5 5 4 4 3 1 1 0 1 1 2 2 1 1 2 2 3 3 3 3 3 3 3 3 3
2 4 9 9 4 5 7 9 8 11 11 8 5 3 5 5 4 5 5 5 4 4 3 2 1 1 2 2 2 1 1 1 1 2 2 2 2 2 3 3 3 3 3 3
3 4 8 8 4 3 3 7 5 6 9 7 2 4 7 3 3 4 3 3 3 2 1 1 1 2 3 2 2 2 1 1 1 1 2 2 2 2 2 3 3 3 3 3
6 7 10 8 4 2 4 7 5 5 6 5 6 8 6 4 3 3 3 3 2 2 1 1 1 2 2 2 2 1 1 1 1 1 2 2 3 3 3 3 3 3 3 3
4 6 10 4 2 5 7 6 5 5 6 6 7 7 6 5 4 4 3 3 1 1 2 1 1 2 2 2 1 2 2 2 2 2 2 2 3 3 3 4 4 3 3 2
8 9 6 3 6 6 4 6 6 5 6 6 6 7 7 5 4 4 4 3 1 1 2 1 1 2 2 1 2 2 2 2 2 2 2 2 3 3 3 3 3 3 3 2
7 10 9 8 7 5 5 6 7 6 7 6 7 8 7 6 5 4 4 3 2 1 2 2 1 1 1 1 2 3 3 2 2 2 2 2 2 2 3 3 3 3 3 3
10 10 8 7 6 7 7 7 7 7 6 7 7 7 6 6 5 4 4 3 2 2 3 3 1 1 1 2 3 3 3 3 2 2 2 2 2 1 2 2 3 4 3 3
11 7 7 8 6 6 7 7 7 8 8 6 5 7 6 5 4 4 4 3 2 3 3 2 1 2 1 2 3 4 3 3 2 2 2 2 2 2 2 2 3 4 4 4
10 8 8 10 8 5 5 6 7 6 7 7 5 4 4 4 3 3 3 3 3 3 3 2 2 2 1 2 3 4 4 3 2 2 2 3 2 3 2 2 3 4 4 4
7 6 7 6 6 6 6 6 5 5 5 4 3 3 3 3 3 3 4 3 3 2 2 2 2 3 2 2 3 3 3 3 3 3 2 2 3 2 2 3 2 1 2 3
5 5 7 6 6 5 4 4 4 5 4 4 3 3 3 3 5 5 3 2 1 2 2 2 3 3 1 2 3 3 3 3 3 2 2 2 2 2 2 3 3 2 1 2
5 5 4 4 6 6 4 4 4 6 5 4 4 4 4 3 4 4 3 2 2 3 3 3 4 3 2 3 3 3 2 3 3 3 3 3 3 3 3 3 3 2 2 1
4 5 4 5 6 6 5 5 5 6 5 5 5 4 3 3 3 3 3 2 3 3 3 3 4 2 2 3 3 3 2 3 4 3 3 3 3 3 3 3 3 2 2 2
4 5 5 5 6 7 7 6 5 5 5 5 4 3 3 3 4 4 4 3 2 3 3 3 3 2 2 3 3 3 3 3 3 3 3 3 3 3 3 3 3 3 2 2
3 4 5 5 5 5 6 6 5 5 4 3 3 4 4 4 4 4 3 2 3 4 4 3 3 2 2 3 3 3 3 3 3 3 3 3 3 3 3 3 3 3 2 2
3 3 4 5 4 4 5 5 5 5 4 3 3 3 4 4 3 3 3 4 4 4 3 2 2 2 3 3 3 3 3 4 4 3 3 3 3 3 3 3 3 3 2 2
4 4 4 5 5 5 5 5 4 5 4 3 3 4 5 4 3 2 3 4 3 2 2 3 2 2 2 2 3 3 4 4 4 4 4 4 4 3 3 3 3 3 3 2
3 4 5 5 5 6 5 4 4 4 4 4 4 3 3 4 3 3 4 4 3 2 2 2 2 3 3 3 3 3 4 4 4 3 4 4 4 4 4 4 4 3 3 3
4 4 4 5 5 6 6 4 4 4 4 4 4 4 4 4 3 3 5 3 2 3 2 2 3 4 4 3 3 3 4 4 4 4 4 4 4 4 4 4 4 4 4 4
3 4 4 4 3 4 6 5 4 3 4 4 4 4 4 3 3 3 3 3 3 3 2 3 4 4 4 3 3 3 4 4 4 4 4 4 4 4 4 4 4 4 4 4
4 4 3 3 4 4 5 5 5 4 3 3 4 3 3 3 3 3 3 3 4 3 2 3 4 3 2 2 3 3 3 4 4 4 4 4 4 4 4 4 4 4 4 4
3 3 3 4 4 4 3 3 3 3 3 4 4 3 2 2 2 2 2 3 3 3 2 2 2 2 2 2 3 3 3 3 4 4 4 4 4 5 4 4 5 5 4 4
3 3 3 3 3 3 3 3 3 4 3 3 4 3 3 2 2 2 2 2 2 2 2 2 2 2 2 2 2 3 3 3 3 3 4 4 4 4 4 5 4 4 4 4
Wind_Direction
260 268 261 257 256 240 229 229 232 249 254 266 275 278 283 290 297 302 299 295 292 298 307 315 326 332 334 351 31 56 72 80 85 88 91 93 95 95 92 91 97 104 108 104
279 280 272 269 259 246 242 238 241 259 266 265 266 272 278 277 273 274 277 281 288 291 293 293 290 298 321 341 26 72 87 88 81 84 87 90 95 98 99 94 89 88 89 95
267 290 306 264 242 225 227 227 223 244 256 273 275 266 259 259 263 269 275 276 274 272 268 266 263 252 254 284 73 96 100 91 91 100 101 97 99 100 100 98 93 86 80 79
266 330 243 246 229 216 233 244 233 245 258 251 251 261 267 253 247 262 272 277 279 280 279 277 266 242 149 101 109 121 119 116 107 113 113 108 112 113 110 108 104 96 86 83
211 248 271 286 262 207 223 255 239 244 260 264 267 298 281 254 243 249 258 266 274 275 266 249 219 187 143 130 127 136 154 150 135 126 120 114 114 111 110 109 103 100 97 91
209 228 247 255 265 247 214 264 266 252 262 268 272 270 270 270 272 276 280 286 293 306 287 221 229 172 154 162 160 181 195 171 136 139 142 139 134 120 115 119 114 106 96 88
225 240 260 260 279 125 191 255 286 267 266 259 236 246 272 298 293 285 285 295 304 308 263 243 209 170 172 171 192 176 128 123 125 133 143 142 129 125 125 119 111 105 100 83
209 231 256 251 159 198 240 278 291 284 276 269 270 278 282 283 282 286 288 291 296 296 284 280 160 160 195 203 163 114 117 119 123 127 134 138 134 127 127 129 125 121 112 92
207 227 253 231 221 242 263 275 283 286 288 282 281 281 280 277 275 278 277 278 275 260 280 291 184 174 207 214 127 129 127 133 128 115 114 131 136 137 135 137 142 147 138 131
254 259 261 266 267 272 271 267 279 284 286 282 275 275 278 278 277 275 277 270 262 249 255 264 259 223 203 162 153 148 151 155 145 137 126 118 127 142 152 158 159 160 158 155
258 272 288 270 257 271 281 286 292 294 287 276 271 273 270 273 274 272 278 282 261 246 250 256 256 247 189 166 164 162 162 159 148 141 138 131 128 149 167 181 178 175 171 165
250 253 255 272 282 286 285 287 292 296 298 293 274 276 280 275 277 280 281 287 275 265 258 254 234 232 208 183 175 168 166 161 156 155 151 147 138 105 105 114 133 146 142 138
251 264 260 272 284 290 286 289 293 288 283 290 292 284 283 284 283 286 282 274 259 253 248 239 228 230 217 193 177 177 176 171 164 165 166 160 157 152 141 108 112 115 118 123
257 270 271 273 279 293 290 295 300 299 297 294 297 303 294 294 292 281 273 269 266 263 251 233 228 237 224 196 182 178 174 170 168 172 171 163 162 160 159 156 151 134 111 116
263 256 256 281 293 297 301 307 306 303 310 316 316 307 299 292 288 287 291 293 283 263 248 230 231 242 217 191 184 179 175 171 165 163 159 156 154 154 153 151 148 142 120 125
292 288 278 280 284 295 304 300 291 294 303 304 308 304 298 291 290 294 296 277 252 256 249 234 236 236 210 189 180 174 172 168 162 158 155 154 157 158 158 154 152 152 157 161
282 293 299 290 291 294 287 278 275 282 288 288 290 297 303 307 304 297 294 286 270 265 259 243 241 233 208 189 179 176 167 163 160 157 164 166 166 168 165 162 166 172 187 194
243 261 271 267 279 289 292 286 279 279 275 277 289 291 282 272 275 283 289 296 298 291 272 251 235 216 202 190 182 174 168 167 166 168 166 167 168 166 163 164 167 169 167 172
270 273 280 278 274 274 278 280 279 277 278 277 274 273 270 269 270 273 275 269 266 274 277 265 241 204 200 198 180 169 167 163 160 160 160 158 157 160 164 167 169 169 173 169
296 293 294 293 290 273 276 282 283 281 276 266 268 273 278 274 267 266 262 260 253 256 260 258 245 222 215 208 181 166 168 168 166 164 161 163 166 169 173 174 173 173 177 184
299 301 300 298 297 287 275 275 277 279 281 264 255 263 271 279 273 260 257 273 274 260 251 247 237 227 212 192 174 168 167 168 171 174 174 174 174 178 181 184 184 186 189 192
292 294 297 299 299 299 297 287 274 275 280 275 267 263 268 276 277 271 254 253 266 261 251 243 242 224 203 184 177 173 173 173 177 178 181 182 183 187 191 193 195 197 197 198
283 285 293 297 295 296 303 296 283 276 273 270 266 262 258 260 256 260 277 267 255 254 249 239 238 221 197 183 180 182 182 183 186 189 191 192 193 193 195 198 200 198 199 202
289 292 292 295 301 303 304 306 305 288 276 275 267 260 258 269 273 249 260 268 267 269 262 245 240 223 197 184 183 187 190 192 193 195 196 196 195 196 198 200 203 203 204 207
285 289 295 303 300 291 291 304 310 305 301 294 288 277 263 248 252 270 275 268 267 271 270 257 249 227 195 189 193 197 199 200 198 194 195 197 199 200 203 203 205 206 208 211
280 282 279 271 269 280 289 295 294 296 300 301 299 287 280 276 265 268 270 267 264 260 258 256 243 218 203 201 206 209 208 204 202 202 201 202 203 204 206 208 209 211 213 214
285 283 287 291 282 270 272 274 277 284 284 282 292 291 288 289 283 276 273 269 264 258 254 250 240 226 214 210 212 214 213 209 207 207 205 207 208 210 211 211 214 214 213 216